COSMOS 2251 DEB, 34389

Orbit data source: Space-Track

COSMOS 2251 DEB, 34389 is space debris in LEO originally from a launch on Wed, 16 Jun 1993 UTC launched from the Plesetsk Missile And Space Complex (PKMTR). The debris from Iridium 33, an American commercial communications satellite, has been tracked extensively since its accidental collision with the defunct Russian satellite Cosmos 2251 in 2009. This event, occurring at high speed in low Earth orbit (LEO), generated thousands of pieces of space debris, significantly increasing the risk of further collisions. The Iridium 33 debris cloud has impacted space traffic management and orbital debris mitigation strategies, making it a subject of ongoing study in space situational awareness.

Loading next visibility...
Identifier
34389, 1993-036QE
Orbit
LEO
Country
Flag of CISCIS
Related business
Manufacturer
Unknown
Mission
Spacecraft
Bus & Motor
Unknown
Mass
Unknown
Launch date (UTC)
1993-06-16 (33 years ago)
Launch vehicle
Unknown
Launch site
Plesetsk Missile And Space Complex (PKMTR)
Object type
Payload
Rocket body
Debris
Shape & HBR
Unknown shape, 0.1 m
Radar Cross Section
Small (<0.1 m²)

Expand to show TLE details & history
Last TLE update: 8 hours ago

TLE from 8 hours ago
0 COSMOS 2251 DEB
1 34389U 93036QE  26036.77337443  .00002162  00000-0  66734-3 0  9993
2 34389  74.0193 147.7563 0030462 250.7947 271.5218 14.41711043888056
Epoch: 2026-02-05T18:33Z
TLE epoch observation values (Epoch: 2026-02-05T18:33:39.550Z)
Latitude
17.30769°
Longitude
-91.67175°
Altitude
754.353 km
Speed
7.479 km/s
True Right ascension
21h 30m 39s
True Declination
17° 12' 37"
Sunlit
Object was in daylight at epoch
Visualization orbit readout
Latitude
Unknown
Longitude
Unknown
Altitude
Unknown
Speed
Unknown
Apparent Right ascension
Unknown
Apparent Declination
Unknown
Sunlit
N/A
Visualization observer readout
Local Sidereal Time
04:54:27
Azimuth
Unknown
Elevation
Unknown
Doppler factor
Unknown
Orbital elements
Apogee altitude
772.185 km
Perigee altitude
728.755 km
Semi-major axis
7,128.607 km
Eccentricity
0.00305
Inclination
74.0193°
RAAN
147.7563°
Arg. of periapsis
250.7947°
True anomaly
271.17282°
Mean anomaly
271.5218°
Eccentric anomaly
271.34731°
Mean motion
3.60609 °/min
Orbital period
99.83 mins
BSTAR
0.00066734

Documentation

Showing up to 5 results
|